Location: Innsbruck
(47.2657°N, 11.3914°E)
Time: 11:18:32
(UTC+01:00)

XW-2F - Pass Details

Date: 10 December 2021
Orbit: 495 x 515 km, 97.5° (Epoch: 15 January)

Event Time Altitude Azimuth Distance (km) Brightness Sun altitude
Rises 06:17:48 0° 16° (NNE) 2,648 ? -14.9°
Reaches altitude 10° 06:19:57 10° 21° (NNE) 1,754 ? -14.6°
Maximum altitude 06:23:40 56° 100° (E) 620 ? -14.0°
Drops below altitude 10° 06:27:21 10° 180° (S) 1,731 ? -13.4°
Sets 06:29:27 0° 184° (S) 2,608 ? -13.0°
